Location: Eferding
(48.3167°N, 14.0167°E)
Time: 16:05:38
(UTC+00:00)

Tsikada Rocket - Pass Details

Date: 12 November 2019
Orbit: 958 x 1009 km, 82.9° (Epoch: 09 December)

Event Time Altitude Azimuth Distance (km) Brightness Sun altitude
Rises 17:37:26 0° 168° (SSE) 3,693 6.9 -21.3°
Reaches altitude 10° 17:40:01 10° 163° (SSE) 2,755 6.2 -21.7°
Maximum altitude 17:46:04 49° 90° (E) 1,272 4.1 -22.7°
Drops below altitude 10° 17:52:12 10° 18° (NNE) 2,796 6.2 -23.7°
Sets 17:54:49 0° 14° (NNE) 3,752 6.9 -24.2°
